www.pogodaiklimat.ru

Погода и климат >> Архив погоды >> Россия >> Пермский край >> Лысьва


ПОГОДА в Лысьве

  • Прогноз погоды в Лысьве
  • Монитор погоды в Лысьве
  • Климат города

АРХИВ ПОГОДЫ в Лысьве

Время (UTC), дата Ветер
(напр.,м/с)
 
Видим.   Явления Облачность Т
(С)
Тd
(С)
f
(%)
Тe
(С)
Тes
(С)
Комфортность P
(гПа)
Po
(гПа)
Тmin
(С)
Tmax
(С)
R
(мм)
R24
(мм)
S
(см)
06 17.05 СВ 1 20 км 10/0 2000 м
[As op]
+7.8 -3.5 45 +8 +10 1028.0 1000.2
09 17.05 СЗ 1 20 км 10/4 600 м
[Sc Ac trans]
+10.3 -2.8 40 +10 +14 1027.0 999.4
12 17.05 В 1 20 км слабый дождь 10/0 2000 м
[As op]
+10.3 +0.3 50 +10 +12 1026.1 998.6
15 17.05 В 1 20 км {дождь} 10/0 2000 м
[Ac und]
+8.6 +1.0 59 +8 +9 1025.5 997.8 +10.6 0.0
18 17.05 Ю 1 20 км {дождь} 10/10 600 м
[Sc]
+8.0 +0.5 59 +8 +8 1024.9 997.2
21 17.05 З 2 10 км слабый дождь 10/10 600 м
[Sc]
+7.8 +0.9 62 +6 +6 1023.1 995.5
00 18.05 С 1 10 км {дождь} 8/5 600 м
[Sc Ac As]
+5.0 +1.7 79 +4 +4 1023.8 995.8
03 18.05 СЗ 1 10 км 9/3 600 м
[Sc Ac cast Ci fib]
+6.7 +2.6 75 +6 +8 1023.7 995.9 +4.7 0.1
06 18.05 З 2 50 км 6/0
[Ci sp]
+12.2 +2.3 51 +12 +22 1023.1 995.8
09 18.05 СЗ 5
{10}
50 км 8/3 600 м
[Cu med, cong Ci fib]
+16.2 +0.9 35 +15 +20 1021.8 995.0
12 18.05 З 5
{11}
50 км 8/3 600 м
[Cu hum Ci fib]
+17.7 +0.2 31 +17 +19 1020.9 994.2
15 18.05 З 3
{11}
50 км 8/1 600 м
[Cu med, cong Ci fib]
+17.3 -0.6 30 +17 +18 1020.1 993.4 +18.2
18 18.05 Ю 1 20 км 8/0 2000 м
[Ac As]
+13.2 +0.6 42 +14 +14 1020.3 993.2
21 18.05 Ю 2 20 км 8/0 2000 м
[Ac As]
+11.9 +2.7 53 +11 +11 1020.5 993.3
00 19.05 Ю 2 20 км 10/0 2000 м
[Ac und]
+10.5 +3.4 61 +9 +9 1020.7 993.4
03 19.05 Ю 2 50 км 10/0 2000 м
[Ac und]
+11.1 +4.6 64 +10 +11 1020.5 993.2 +10.1
06 19.05 Ю 2 20 км слабый ливневой дождь 10/8 300 м
[Cb cap Ac und]
+11.6 +8.5 81 +10 +11 1021.1 993.9
09 19.05 З 2 50 км {ливн. осадки} 10/3 600 м
[Cu med, cong Ac As]
+12.5 +8.5 77 +12 +15 1020.6 993.5
12 19.05 З 4 50 км {ливн. осадки} 9/4 600 м
[Cu med, cong Ac cast]
+16.9 +5.4 47 +16 +18 1018.0 991.3
15 19.05 С 1
{10}
20 км ливневой дождь 10/8 300 м
[Cb cap Ac As]
+12.5 +7.6 72 +13 +13 1018.3 991.3 +17.7 2
18 19.05 С 1 4000 м ливневой дождь 9/6 300 м
[Cb cap Ac As]
+10.8 +7.7 81 +11 +11 1018.4 991.2
21 19.05 ЮВ 2 10 км {ливн. осадки} 4/0 2000 м
[Ac lent]
+9.4 +7.2 86 +8 +8 1017.1 989.8
00 20.05 ЮВ 2 50 км {ливн. осадки} 8/0 2000 м
[Ac cast]
+10.0 +6.3 78 +9 +9 1016.0 988.8
03 20.05 Ю 2 50 км 10/6 600 м
[Sc Ac As]
+11.7 +6.2 69 +11 +11 1015.2 988.1 +9.2 0.4
06 20.05 ЮЗ 3 50 км ливневой дождь 8/3 300 м
[Cb calv Ac cast]
+16.7 +6.0 49 +17 +20 1013.4 986.9
09 20.05 ЮЗ 3 20 км 9/4 300 м
[Cb cap Ac As]
+19.3 +1.9 31 +20 +23 1011.0 984.7
12 20.05 ЮЗ 4
{10}
20 км 10/6 600 м
[Sc diur, vesp Ac As]
+21.8 +0.6 24 +21 +22 комфорт 1008.5 982.5
15 20.05 ЮЗ 4
{10}
20 км 10/3 600 м
[Cu hum Ac trans Ci fib]
+20.5 +4.5 35 +21 +21 комфорт 1006.5 980.4 +22.0 0.0
18 20.05 Ю 4 20 км 4/3 600 м
[Sc diur, vesp Ac trans Ci fib]
+16.9 +5.5 47 +16 +16 1005.5 979.2
21 20.05 ЮЗ 3 20 км ясно +14.5 +5.9 56 +14 +14 1003.8 977.3
00 21.05 Ю 3 20 км 4/0 2000 м
[Ac As Ci fib]
+12.8 +6.2 64 +12 +12 1002.3 975.7
03 21.05 ЮЗ 2 20 км 9/8 600 м
[Sc diur, vesp Ac As]
+14.8 +7.3 61 +15 +15 1001.8 975.4 +12.5
06 21.05 СЗ 2 10 км дождь 10/10 600 м
[Sc]
+12.8 +10.2 84 +12 +12 1002.2 975.7
09 21.05 С 2 20 км в посл. час дождь 10/10 600 м
[Sc]
+10.4 +8.7 89 +9 +9 1002.8 976.0
12 21.05 С 2 10 км слабый дождь 10/10 600 м
[Sc]
+9.3 +8.3 93 +7 +7 1002.3 975.4
15 21.05 СВ 2 10 км слабый дождь 10/10 600 м
[Sc]
+8.3 +6.7 90 +6 +6 1000.5 973.6 +15.2 4
18 21.05 С 1 10 км {дождь} 10/10 600 м
[Sc]
+7.7 +5.5 86 +7 +7 999.5 972.5
21 21.05 С 2 10 км слабый дождь 10/10 600 м
[Sc]
+5.4 +4.0 91 +3 +3 998.0 970.8
00 22.05 С 3 10 км слабый дождь 10/10 600 м
[Sc]
+2.4 +1.1 91 -2 -2 998.6 971.1
03 22.05 СЗ 3 20 км {дождь} 10/10 600 м
[Sc]
+1.2 -1.8 80 -3 -3 1000.6 972.9 +1.1 3
06 22.05 С 3 50 км {дождь} 3/1 600 м
[Cu med, cong Ci fib]
+6.4 -2.4 53 +4 +12 1002.1 974.8
09 22.05 С 3 50 км 1/1 600 м
[Cu med, cong]
+9.8 -4.5 36 +8 +19 опасность
простуды
1003.5 976.5
12 22.05 С 3 50 км 3/0
[Ci fib]
+11.2 -6.3 29 +10 +16 1004.6 977.7
15 22.05 СЗ 3 50 км ясно +10.4 -7.6 27 +9 +10 1005.7 978.7 +11.6
18 22.05 С 2 20 км ясно +5.0 -5.1 48 +3 +3 1006.7 979.2
21 22.05 штиль 0 20 км ясно +1.6 -4.6 63 +1 +1 1008.2 980.3
00 23.05 штиль 0 50 км ясно -1.0 -3.3 84 -2 -2 1008.7 980.5
03 23.05 С 2 50 км 3/0
[Ci fib]
+4.4 -1.7 65 +2 +6 1007.8 980.2 -1.0 0.0
06 23.05 С 2 50 км 8/0 2000 м
[Ac cast]
+6.5 -4.3 46 +5 +10 1007.9 980.5
09 23.05 СЗ 3 50 км 8/0 2000 м
[Ac cast]
+7.7 -3.7 44 +6 +11 1007.6 980.3
12 23.05 СЗ 3 50 км 8/3 600 м
[Cu med, cong Ac trans]
+8.6 -4.1 40 +7 +9 1007.1 979.9
15 23.05 СЗ 3 50 км 4/1 600 м
[Cu hum Ac trans]
+7.7 -4.3 42 +6 +6 1007.6 980.3 +9.5
18 23.05 С 1 50 км 3/0 2000 м
[Ac trans]
+4.4 -3.9 55 +4 +4 1008.6 981.0
21 23.05 Ю 1 50 км ясно +0.5 -3.1 77 -1 -1 1009.0 981.0
00 24.05 Ю 1 50 км 3/0 2000 м
[Ac trans]
-1.7 -4.0 84 -4 -4 1009.8 981.5
03 24.05 Ю 1 50 км 3/0 2000 м
[Ac trans]
+4.4 -3.2 58 +4 +7 1009.5 981.8 -1.8 0.0

 

Местоположение метеостанции Лысьва (Пермский край, Россия): широта 58.12 долгота 57.78 высота над уровнем моря 226 м.

В архиве по умолчанию представлена погода в Лысьве за последнюю неделю. Архивные данные за месяц целиком и за предыдущие месяцы, начиная с января 2011 года, Вы можете получить, выбрав интересующий диапазон дат из раскрывающегося списка и нажав кнопку "Ввод!".

Внимание! Время в таблицах - всемирное. Для получения местного времени необходимо прибавить поправку, которая в Лысьве равна 5 ч.

Смотрите также архив погоды в соседних городах и на ближайших метеорологических станциях:

Погода в Перми (Пермский край, Россия) (67 км)
Погода в Бисере (Пермский край, Россия) (77 км)
Погода в Добрянке (Пермский край, Россия) (86 км)
Погода в Губахе (Пермский край, Россия) (88 км)
Погода в Шамарах (Свердловская область, Россия) (90 км)
Погода в Кунгуре (Пермский край, Россия) (93 км)
Погода в Висиме (Свердловская область, Россия) (115 км)
Погода в Чермозе (Пермский край, Россия) (117 км)
Погода в Кушве (Свердловская область, Россия) (118 км)
Погода в Нижнем Тагиле (Свердловская область, Россия) (138 км)

Пояснения к столбцам:

Ветер - указаны скорость ветра в м/с - средняя за 10 мин, порывы в срок и между сроками (в фигурных скобках) и направление, откуда дует ветер: С - северный, СВ - северо-восточный, В - восточный, ЮВ - юго-восточный, Ю - южный, ЮЗ - юго-западный, З - западный, СЗ - северо-западный.
Видимость - горизонтальная дальность видимости в метрах или километрах. При видимости от 1 до 10 км при отсутствии осадков обычно наблюдается дымка, при ухудшении видимости до 1 км и менее - туман. В сухую погоду видимость может ухудшаться дымом, пылью или мглою.
Явления - указаны атмосферные явления, наблюдавшиеся в срок или в последний час перед сроком; фигурными скобками обозначены явления, наблюдавшиеся между сроками (за 1-3 часа до срока); квадратными скобками обозначены град или гололедные отложения с указанием их диаметра в мм.
Облачность - указаны через наклонную черту общая и нижняя облачность в баллах и высота нижней границы облаков в метрах; квадратными скобками обозначены формы облаков: Ci - перистые, Cs - перисто-слоистые, Cc - перисто-кучевые, Ac - высококучевые, As - высокослоистые, Sc - слоисто-кучевые, Ns - слоисто-дождевые, Cu - кучевые, Cb - кучево-дождевые. Подробнее классификацию облаков см. в Атласе облаков (PDF).
T - Температура воздуха - температура, измеренная на высоте 2 м над землей.
Td - Температура точки росы - температура, при понижении до которой содержащийся в воздухе водяной пар достигнет насыщения.
f - Относительная влажность воздуха - влажноcть воздуха, измеренная на высоте 2 м над землей.
Te - Эффективная температура - температура, которую ощущает одетый по сезону человек в тени. Характеристика душности погоды. При расчете учитывается влияние влажности воздуха и скорости ветра на теплоощущения человека.
Tes - Эффективная температура на солнце - температура, которую ощущает человек, с поправкой на солнечный нагрев. Характеристика знойности погоды. Зависит от высоты солнца над горизонтом, облачности и скорости ветра. Ночью, в пасмурную погоду, а также при ветре 12 м/с и более поправка равна нулю.
P - Атмосферное давление - приведенное к уровню моря атмосферное давление.
Po - Атмосферное давление - измеренное на уровне метеостанции атмосферное давление.
Tmin - Минимальная температура - минимум температуры воздуха на высоте 2 м над землей.
Tmax - Максимальная температура - максимум температуры воздуха на высоте 2 м над землей.
R - Количество осадков - Количество выпавших осадков за период времени, мм. При наведении курсора мыши на число - период времени, за который выпало указанное количество осадков.
R24 - Количество осадков - Количество выпавших осадков за 24 часа, мм.
S - Снежный покров - Высота снежного покрова, см. При наведении курсора мыши на число - состояние снежного покрова и степень покрытия местности в баллах.